Météo par heure à 1-e Itkulovo

Ce jour, 18 Avril, Dimanche

Heure Température Précipitation Vent Pression Humidité
00:00 +9°C° 0 mm 0 m/s 717 mmHg 65%
01:00 +9°C° 0 mm 0 m/s 716 mmHg 65%
02:00 +8°C° 0 mm 0 m/s 716 mmHg 66%
03:00 +9°C° 0 mm 1 m/s 716 mmHg 67%
04:00 +8°C° 0 mm 1 m/s 716 mmHg 68%
05:00 +9°C° 0 mm 1 m/s 716 mmHg 68%
06:00 +9°C° 0 mm 1 m/s 716 mmHg 68%
07:00 +10°C° 0 mm 1 m/s 716 mmHg 68%
08:00 +11°C° 0 mm 1 m/s 716 mmHg 63%
09:00 +13°C° 0 mm 1 m/s 716 mmHg 58%
10:00 +15°C° 0 mm 1 m/s 716 mmHg 52%
11:00 +16°C° 0 mm 2 m/s 716 mmHg 47%
12:00 +17°C° 0 mm 2 m/s 716 mmHg 42%
13:00 +17°C° 0 mm 2 m/s 716 mmHg 36%
14:00 +17°C° 0 mm 3 m/s 716 mmHg 36%
15:00 +17°C° 0 mm 3 m/s 716 mmHg 36%
16:00 +17°C° 0 mm 3 m/s 716 mmHg 36%
17:00 +15°C° 0 mm 4 m/s 716 mmHg 43%
18:00 +13°C° 0 mm 5 m/s 716 mmHg 50%
19:00 +10°C° 0 mm 6 m/s 716 mmHg 57%
20:00 +8°C° 0 mm 7 m/s 717 mmHg 63%
21:00 +4°C° 0 mm 8 m/s 718 mmHg 70%
22:00 +1°C° 0 mm 9 m/s 719 mmHg 77%
23:00 0°C° 0 mm 9 m/s 719 mmHg 76%

Demain, 19 Avril, Lundi

Heure Température Précipitation Vent Pression Humidité
00:00 -1°C° 0 mm 8 m/s 719 mmHg 75%
01:00 -2°C° 0 mm 8 m/s 720 mmHg 74%
02:00 -4°C° 0 mm 8 m/s 720 mmHg 74%
03:00 -4°C° 0 mm 8 m/s 721 mmHg 74%
04:00 -5°C° 0 mm 8 m/s 721 mmHg 74%
05:00 -5°C° 0 mm 8 m/s 722 mmHg 67%
06:00 -6°C° 0 mm 8 m/s 722 mmHg 61%
07:00 -6°C° 0 mm 8 m/s 722 mmHg 54%
08:00 -5°C° 0 mm 8 m/s 722 mmHg 49%
09:00 -5°C° 0 mm 8 m/s 723 mmHg 44%
10:00 -4°C° 0 mm 9 m/s 723 mmHg 40%
11:00 -2°C° 0 mm 8 m/s 723 mmHg 37%
12:00 -1°C° 0 mm 8 m/s 723 mmHg 35%
13:00 -1°C° 0 mm 8 m/s 723 mmHg 33%
14:00 0°C° 0 mm 8 m/s 723 mmHg 32%
15:00 0°C° 0 mm 8 m/s 723 mmHg 32%
16:00 0°C° 0 mm 7 m/s 723 mmHg 32%
17:00 -1°C° 0 mm 7 m/s 723 mmHg 34%
18:00 -2°C° 0 mm 7 m/s 724 mmHg 36%
19:00 -3°C° 0 mm 7 m/s 724 mmHg 38%
20:00 -4°C° 0 mm 7 m/s 724 mmHg 40%
21:00 -5°C° 0 mm 6 m/s 725 mmHg 42%
22:00 -5°C° 0 mm 6 m/s 725 mmHg 44%
23:00 -6°C° 0 mm 6 m/s 725 mmHg 45%

Après-demain, 20 Avril, Mardi

Heure Température Précipitation Vent Pression Humidité
00:00 -6°C° 0 mm 6 m/s 725 mmHg 46%
01:00 -6°C° 0 mm 6 m/s 725 mmHg 47%
02:00 -6°C° 0 mm 6 m/s 726 mmHg 47%
03:00 -8°C° 0 mm 6 m/s 726 mmHg 48%
04:00 -8°C° 0 mm 6 m/s 726 mmHg 48%
05:00 -8°C° 0 mm 6 m/s 727 mmHg 46%
06:00 -8°C° 0 mm 7 m/s 727 mmHg 44%
07:00 -7°C° 0 mm 7 m/s 727 mmHg 42%
08:00 -6°C° 0 mm 7 m/s 727 mmHg 38%
09:00 -4°C° 0 mm 7 m/s 727 mmHg 35%
10:00 -3°C° 0 mm 7 m/s 728 mmHg 31%
11:00 -2°C° 0 mm 6 m/s 728 mmHg 30%
12:00 -1°C° 0 mm 6 m/s 728 mmHg 29%
13:00 +1°C° 0 mm 5 m/s 728 mmHg 28%
14:00 +1°C° 0 mm 5 m/s 727 mmHg 29%
15:00 +1°C° 0 mm 5 m/s 727 mmHg 29%
16:00 +3°C° 0 mm 4 m/s 727 mmHg 30%
17:00 0°C° 0 mm 4 m/s 727 mmHg 35%
18:00 0°C° 0 mm 3 m/s 727 mmHg 41%
19:00 -1°C° 0 mm 2 m/s 727 mmHg 46%
20:00 -1°C° 0 mm 2 m/s 727 mmHg 47%
21:00 0°C° 0 mm 1 m/s 727 mmHg 49%
22:00 0°C° 0 mm 1 m/s 728 mmHg 50%
23:00 -1°C° 0 mm 1 m/s 728 mmHg 50%

21 Avril, Mercredi

Heure Température Précipitation Vent Pression Humidité
00:00 -1°C° 0 mm 1 m/s 727 mmHg 50%
01:00 -1°C° 0 mm 1 m/s 727 mmHg 50%
02:00 -1°C° 0 mm 1 m/s 727 mmHg 50%
03:00 -1°C° 0 mm 1 m/s 727 mmHg 50%
04:00 -1°C° 0 mm 1 m/s 727 mmHg 50%
05:00 0°C° 0 mm 1 m/s 728 mmHg 47%
06:00 +1°C° 0 mm 1 m/s 728 mmHg 43%
07:00 +2°C° 0 mm 1 m/s 728 mmHg 40%
08:00 +3°C° 0 mm 1 m/s 728 mmHg 36%
09:00 +3°C° 0 mm 2 m/s 728 mmHg 33%
10:00 +5°C° 0 mm 2 m/s 728 mmHg 30%
11:00 +6°C° 0 mm 2 m/s 728 mmHg 30%
12:00 +7°C° 0 mm 2 m/s 728 mmHg 30%
13:00 +8°C° 0 mm 2 m/s 728 mmHg 30%
14:00 +8°C° 0 mm 2 m/s 728 mmHg 31%
15:00 +8°C° 0 mm 2 m/s 728 mmHg 31%
16:00 +9°C° 0 mm 2 m/s 728 mmHg 32%
17:00 +7°C° 0 mm 2 m/s 728 mmHg 37%
18:00 +6°C° 0 mm 2 m/s 728 mmHg 43%
19:00 +5°C° 0 mm 2 m/s 728 mmHg 49%
20:00 +4°C° 0 mm 2 m/s 728 mmHg 51%
21:00 +4°C° 0 mm 1 m/s 728 mmHg 53%
22:00 +4°C° 0 mm 1 m/s 729 mmHg 55%
23:00 +3°C° 0 mm 1 m/s 729 mmHg 56%

22 Avril, Jeudi

Heure Température Précipitation Vent Pression Humidité
00:00 +3°C° 0 mm 1 m/s 729 mmHg 57%
01:00 +3°C° 0 mm 1 m/s 729 mmHg 59%
02:00 +2°C° 0 mm 1 m/s 729 mmHg 59%
03:00 +2°C° 0 mm 1 m/s 729 mmHg 59%
04:00 +2°C° 0 mm 1 m/s 730 mmHg 59%
05:00 +3°C° 0 mm 1 m/s 730 mmHg 55%
06:00 +4°C° 0 mm 1 m/s 730 mmHg 52%
07:00 +5°C° 0 mm 1 m/s 730 mmHg 49%
08:00 +6°C° 0 mm 2 m/s 730 mmHg 45%
09:00 +7°C° 0 mm 3 m/s 730 mmHg 41%
10:00 +9°C° 0 mm 3 m/s 730 mmHg 37%
11:00 +8°C° 0 mm 4 m/s 730 mmHg 36%
12:00 +10°C° 0 mm 4 m/s 730 mmHg 36%
13:00 +11°C° 0 mm 4 m/s 730 mmHg 35%
14:00 +11°C° 0 mm 4 m/s 730 mmHg 36%
15:00 +11°C° 0 mm 4 m/s 730 mmHg 36%
16:00 +11°C° 0 mm 4 m/s 730 mmHg 37%
17:00 +10°C° 0 mm 3 m/s 729 mmHg 42%
18:00 +9°C° 0 mm 3 m/s 729 mmHg 48%
19:00 +8°C° 0 mm 2 m/s 729 mmHg 54%
20:00 +7°C° 0 mm 2 m/s 729 mmHg 56%
21:00 +6°C° 0 mm 2 m/s 729 mmHg 58%
22:00 +6°C° 0 mm 1 m/s 729 mmHg 61%
23:00 +6°C° 0 mm 1 m/s 729 mmHg 61%

23 Avril, Vendredi

Heure Température Précipitation Vent Pression Humidité
00:00 +5°C° 0 mm 1 m/s 729 mmHg 62%
01:00 +5°C° 0 mm 1 m/s 729 mmHg 63%
02:00 +5°C° 0 mm 1 m/s 729 mmHg 63%
03:00 +5°C° 0 mm 1 m/s 729 mmHg 64%
04:00 +5°C° 0 mm 1 m/s 728 mmHg 64%
05:00 +5°C° 0 mm 1 m/s 729 mmHg 64%
06:00 +6°C° 0 mm 1 m/s 729 mmHg 63%
07:00 +7°C° 0 mm 1 m/s 729 mmHg 62%
08:00 +7°C° 0 mm 2 m/s 729 mmHg 59%
09:00 +8°C° 0 mm 3 m/s 729 mmHg 55%
10:00 +10°C° 0 mm 3 m/s 729 mmHg 52%
11:00 +10°C° 0 mm 4 m/s 728 mmHg 50%
12:00 +11°C° 0 mm 4 m/s 728 mmHg 48%
13:00 +12°C° 0 mm 5 m/s 728 mmHg 46%
14:00 +12°C° 0 mm 5 m/s 728 mmHg 46%
15:00 +12°C° 0 mm 5 m/s 727 mmHg 46%
16:00 +12°C° 0 mm 5 m/s 727 mmHg 45%
17:00 +11°C° 0 mm 4 m/s 727 mmHg 50%
18:00 +10°C° 0 mm 3 m/s 727 mmHg 55%
19:00 +9°C° 0 mm 3 m/s 727 mmHg 60%
20:00 +8°C° 0 mm 3 m/s 727 mmHg 61%
21:00 +8°C° 0 mm 3 m/s 726 mmHg 63%
22:00 +7°C° 0 mm 3 m/s 726 mmHg 64%
23:00 +7°C° 0 mm 3 m/s 726 mmHg 66%
Voir plus

Nous avons besoin de votre consentement

Meteoprog et ses fournisseurs de services peuvent stocker et accéder à des données personnelles telles que des cookies, des identifiants d'appareils ou d'autres technologies similaires sur votre appareil et traiter ces données pour personnaliser le contenu et les publicités, ainsi que pour fournir des fonctionnalités de médias sociaux et analyser le trafic.

  • Stocker et/ou accéder à des informations sur votre appareil

    Des cookies, des identifiants d'appareils ou d'autres informations peuvent être stockés ou accessibles sur votre appareil aux fins indiquées ci-dessus.

  • Annonces et contenus personnalisés, mesure des annonces et des contenus, connaissance de l'audience et développement de produits

    Les annonces et le contenu peuvent être personnalisés en fonction d'un profil. D'autres données peuvent être ajoutées pour mieux personnaliser les annonces et le contenu. Les performances des publicités et du contenu peuvent être mesurées. Il est possible d'obtenir des informations sur le public qui a vu les publicités et le contenu. Ces données peuvent être utilisées pour développer ou améliorer l'expérience de l'utilisateur, les systèmes et les logiciels.

En cliquant sur "J'accepte", vous autorisez l'utilisation de cookies, des identifiants d'appareils, des balises web ou d'autres technologies similaires. Vos paramètres peuvent être modifiés dans le navigateur de votre appareil.

Dans certains cas, des intérêts légitimes peuvent être invoqués plutôt qu'un consentement. Vous pouvez en savoir plus à ce sujet dans notre Politique de confidentialité et de cookies.